Regional Weather Roundup
Issued by NWS

Home | Current Version | Previous Version | Graphics & Text | Print | Product List | Glossary On
Versions: 1 2 3 4 5 6 7 8 9 10 11 12 13 14 15 16 17 18 19 20 21 22 23 24 25 26 27 28 29 30 31 32 33 34 35 36 37 38 39 40 41 42 43 44 45 46 47 48 49 50
000
ASUS43 KMPX 260810
RWRMN
WEATHER ROUNDUP FOR MINNESOTA
NATIONAL WEATHER SERVICE TWIN CITIES/CHANHASSEN MN
300 AM CDT THU MAY 26 2016


NOTE: "FAIR" INDICATES FEW OR NO CLOUDS BELOW 12,000 FEET WITH NO
SIGNIFICANT WEATHER AND/OR OBSTRUCTIONS TO VISIBILITY. N/A MEANS
CURRENT SKY AND/OR WEATHER CONDITIONS ARE NOT AVAILABLE.

MNZ060>063-068>070-260900-
   Twin Cities Metro

CITY           SKY/WX    TMP DP  RH WIND       PRES   REMARKS
TWIN CITIES    TSTM      67  63  87 S22G32    29.79S FOG
ST PAUL        LGT RAIN  65  63  93 S6        29.79S
CRYSTAL        CLOUDY    67  62  84 S10       29.77S
BLAINE         CLOUDY    66  66 100 S5        29.77S
EDEN PRAIRIE   TSTM      64  56  75 W9        29.77S
SOUTH ST PAUL  CLOUDY    65  63  93 SW8       29.81R
LAKE ELMO      LGT RAIN  63  63 100 CALM      29.79F
$$
MNZ001>005-007-008-013>017-022>024-027-028-260900-
   Northwest Minnesota

CITY           SKY/WX    TMP DP  RH WIND       PRES   REMARKS
BEMIDJI        CLOUDY    55  55  97 E8        29.73F
HALLOCK        CLOUDY    57  57 100 SW15      29.66R
ROSEAU         CLOUDY    59  54  82 S14G20    29.69S
WARROAD        CLOUDY    61  55  82 S10G16    29.71R
THIEF RVR FALL CLOUDY    57  54  88 SW5       29.73R
CROOKSTON      CLOUDY    57  57 100 W3        29.72R
FOSSTON        MOCLDY    55  54  94 CALM      29.72S
DETROIT LAKES  PTCLDY    55  54  94 E3        29.73F
MOORHEAD       CLEAR     54  54 100 CALM      29.74R
PARK RAPIDS    CLOUDY    59  55  87 NE5       29.74F
MAHNOMEN       PTSUNNY   55  54  97 S5        29.73R
$$
MNZ006-009>011-018-025>026-260900-
   North Central Minnesota

CITY           SKY/WX    TMP DP  RH WIND       PRES   REMARKS
BAUDETTE       CLOUDY    56  53  90 SE9       29.73F
FLAG ISLAND    CLOUDY    57  55  94 S26       29.70F
INTL FALLS     MOCLDY    56  50  80 SE7       29.78S
WASKISH        RAIN      55  54  94 CALM      29.75S
BIG FORK       PTCLDY    55  52  88 SE6       29.77F
LONGVILLE      CLOUDY    55  54  94 SE3       29.76S FOG
GRAND RAPIDS   CLOUDY    53  52  96 E9        29.79F
CRANE LAKE     MOCLDY    52  48  87 CALM      29.83R
ORR            PTCLDY    52  46  82 CALM      29.77F
COOK           CLOUDY    52  48  87 E3        29.79F
WALKER         DRIZZLE   56  55  97 CALM      29.77R
$$
MNZ012-019>021-037-260900-
   Northeast Minnesota

CITY           SKY/WX    TMP DP  RH WIND       PRES   REMARKS
DULUTH         FOG       44  43  96 SE7       29.83R VSB 1/4
ELY            MOCLDY    46  46 100 SW3       29.84R
HIBBING        CLOUDY    48  48 100 CALM      29.80F
EVELETH        CLOUDY    48  46  93 CALM      29.82F
DULUTH HARBOR  CLOUDY    45  43  93 E12       29.85F
TWO HARBORS    CLOUDY    52  46  82 NE7       29.82S
SILVER BAY     CLOUDY    48  46  93 NE3       29.83F
GRAND MARAIS     N/A     50  46  86 E7        29.84F
G MARAIS ARPRT CLOUDY    48  46  93 CALM      29.86F FOG
$$
MNZ029>031-032-039>041-046>048-054>057-064-260900-
   West Central Minnesota

CITY           SKY/WX    TMP DP  RH WIND       PRES   REMARKS
FERGUS FALLS     N/A     57  57 100 CALM      29.69F FOG
WHEATON        CLOUDY    61  57  88 W6        29.74F
MORRIS         CLOUDY    57  52  82 SW3       29.74R
ALEXANDRIA     CLOUDY    61  48  62 W7        29.75S
ELBOW LAKE     FAIR      56  53  87 SW8       29.73S
WADENA         CLEAR     55  55 100 SE5       29.74R FOG
GLENWOOD       PTCLDY    61  50  67 SW8       29.76R
APPLETON       MOCLDY    59  52  77 CALM      29.75R
ORTONVILLE     MOCLDY    61  52  72 SW7       29.74S
MADISON        CLOUDY    61  54  77 W9        29.76R
WILLMAR        FAIR      61  54  77 SE3       29.79R
$$
MNZ033>034-036-042>043-049>051-058-059-260900-
   Central Minnesota

CITY           SKY/WX    TMP DP  RH WIND       PRES   REMARKS
ST CLOUD       CLOUDY    60  60 100 SE6       29.77S FOG
SAUK CENTRE    FAIR      60  59  98 SE7       29.77R
PAYNESVILLE    CLOUDY    63  63 100 CALM      29.78R
AITKIN         FOG       55  52  88 CALM      29.77S VSB 3/4
PINE RIVER     FOG       55  55 100 SE7       29.79S VSB 1
BRAINERD       FOG       56  56 100 SE7       29.76F VSB 3/4
STAPLES        CLOUDY    59  57  94 S5        29.75R FOG
LONG PRAIRIE   MOCLDY    59  59 100 S6        29.77R FOG
LITTLE FALLS   CLOUDY    59  59 100 S5        29.75S FOG
LITCHFIELD     CLOUDY    64  63  94 CALM      29.77F
BUFFALO        CLOUDY    64  61  91 CALM      29.77F
MAPLE LAKE     CLOUDY    64  63  97 CALM      29.76F
HUTCHINSON     CLOUDY    65  60  85 S7        29.80R
$$
MNZ037-044-045-052-053-260900-
   East Central Minnesota

CITY           SKY/WX    TMP DP  RH WIND       PRES   REMARKS
PRINCETON      CLOUDY    63  63 100 CALM      29.79R FOG
MORA           FOG       54  54 100 CALM      29.81R VSB 3/4
CAMBRIDGE      CLOUDY    64  57  77 CALM      29.77R HAZE
RUSH CITY      CLOUDY    59  58  97 CALM      29.79S FOG
MOOSE LAKE     FOG       45  43  93 CALM      29.79F VSB 3/4
HINCKLEY       CLOUDY    55  55 100 E5        29.79S FOG
CLOQUET        FOG       45  43  93 E8        29.82F VSB 1/4
MCGREGOR       CLOUDY    50  50 100 E6        29.79F VSB 3/4
$$
MNZ071>073-080-081-089-090-097-098-260900-
   Southwest Minnesota

CITY           SKY/WX    TMP DP  RH WIND       PRES   REMARKS
MONTEVIDEO     MOCLDY    61  50  67 W5        29.77R
GRANITE FALLS  CLOUDY    63  53  68 E8        29.80R
CANBY          MOCLDY    64  55  73 SW8       29.78R
MARSHALL       CLOUDY    65  51  60 SW12      29.77R
REDWOOD FALLS  CLOUDY    63  55  75 E6        29.79R
OLIVIA         CLOUDY    63  52  67 SE8       29.79R
PIPESTONE      CLOUDY    59  55  88 W7        29.80S
WINDOM         CLOUDY    59  54  82 CALM      29.78F
WORTHINGTON    CLOUDY    61  53  75 S9        29.80S
JACKSON        CLOUDY    59  54  82 CALM      29.80S
TRACY          CLOUDY    64  55  70 SW12      29.77R
SLAYTON        CLOUDY    64  51  62 W13       29.80R
$$
MNZ065>067-074>077-082>085-091>093-260900-
   South Central Minnesota

CITY           SKY/WX    TMP DP  RH WIND       PRES   REMARKS
MANKATO        CLOUDY    61  55  82 W9        29.86R
NEW ULM        LGT RAIN  61  57  88 S10       29.84R
ST JAMES       RAIN      57  50  77 NE6       29.78F
FAIRMONT       CLOUDY    63  45  51 N12       29.77F
GLENCOE        CLOUDY    64  63  94 S13G20    29.81R
FARIBAULT      CLOUDY    63  57  82 N8G18     29.82S
OWATONNA       TSTM      64  57  77 W43G48    29.90R
WASECA         TSTM      59  57  94 W10       29.89R
ALBERT LEA     TSTM      61  59  94 NW18G35   29.84R
$$
MNZ078>079-086>088-094>096-260900-
   Southeast Minnesota

CITY           SKY/WX    TMP DP  RH WIND       PRES   REMARKS
ROCHESTER      PTCLDY    63  61  93 S5        29.80F
RED WING       MOCLDY    64  63  94 CALM      29.79S
STANTON        CLOUDY    67  62  83 W14G20    29.81R
DODGE CENTER   CLOUDY    66  61  82 S13       29.80F
WINONA         PTCLDY    63  61  94 CALM      29.80F FOG
AUSTIN         MOCLDY    64  61  88 SW5       29.79F
PRESTON        CLEAR     63  59  86 S3        29.81F
$$
ABBREVIATIONS USED IN REMARKS
   TC - TEMPERATURES IN CELSIUS
  WCI - WIND CHILL INDEX
   HX - HEAT INDEX
  VSB - VISIBILITY
$$




USA.gov is the U.S. government's official web portal to all federal, state and local government web resources and services.